Location: Lowman
(44.0835°N, 115.6207°W)
Time: 08:07:21
(UTC+00:00)

Envisat - Visible Passes

Search period start: 28 November 2022 00:00
Search period end: 08 December 2022 00:00
Orbit: 763 x 765 km, 98.2° (Epoch: 27 November)

Date Brightness Start Highest point End Pass type
(mag) Time Alt. Az. Time Alt. Az. Time Alt. Az.
28 Nov 4.4 12:29:52 10° N 12:32:00 25° N 12:32:00 25° N visible
29 Nov 4.9 11:52:48 10° NNE 11:54:22 20° NNE 11:54:22 20° NNE visible
29 Nov 4.7 13:33:13 10° NNW 13:34:32 14° NW 13:34:32 14° NW visible
30 Nov 5.6 11:16:11 10° NNE 11:16:44 13° NE 11:16:44 13° NE visible
30 Nov 4.6 12:55:13 10° N 12:56:54 19° NNW 12:56:54 19° NNW visible
01 Dec 4.8 12:17:51 10° N 12:19:17 19° N 12:19:17 19° N visible
02 Dec 5.4 11:40:54 10° NNE 11:41:41 14° NNE 11:41:41 14° NNE visible
02 Dec 4.8 13:20:51 10° NNW 13:21:51 14° NNW 13:21:51 14° NNW visible
03 Dec 6.1 00:39:30 10° WSW 00:41:22 12° W 00:43:15 10° WNW visible
03 Dec 4.9 12:43:06 10° N 12:44:15 16° N 12:44:15 16° N visible
04 Dec 5.2 12:05:52 10° NNE 12:06:39 15° NNE 12:06:39 15° NNE visible
05 Dec 5.7 11:29:04 10° NNE 11:29:04 10° NNE 11:29:04 10° NNE visible
05 Dec 5.0 13:08:34 10° N 13:09:15 13° NNW 13:09:15 13° NNW visible
06 Dec 5.2 12:31:02 10° N 12:31:40 14° N 12:31:40 14° N visible
07 Dec 5.5 11:53:55 10° NNE 11:54:06 11° NNE 11:54:06 11° NNE visible
